Weather History for St. Joseph, MO

Change the Weather History Date:

Friday, June 14, 2013

  Actual Average Record
Temperature  
Mean Temperature 75 °F 74 °F  
Max Temperature 87 °F 84 °F 99 °F (1987)
Min Temperature 63 °F 63 °F 46 °F (1942)
Degree Days  
Heating Degree Days 0 0  
Month to date heating degree days 15 6  
Since 1 June heating degree days 15 6  
Since 1 July heating degree days 5614 5456  
Cooling Degree Days 10 9  
Month to date cooling degree days 70 104  
Year to date cooling degree days 196 217  
Since 1 June cooling degree days 70 104  
Growing Degree Days 24 (Base 50)    
Moisture  
Dew Point 64 °F    
Average Humidity 69    
Maximum Humidity 90    
Minimum Humidity 48    
Precipitation  
Precipitation 0.00 in 0.16 in 1.66 in (2001)
Month to date precipitation 1.15 2.26  
Year to date precipitation 15.20 15.21  
Sea Level Pressure  
Sea Level Pressure 29.94 in    
Wind  
Wind Speed 11 mph (SE)    
Max Wind Speed 25 mph    
Max Gust Speed 41 mph    
Visibility 10 miles    
Events      
T = Trace of Precipitation, MM = Missing Value Source: NWS Daily Summary

Daily Weather History Graph

Daily Weather History Graph

Search for Another Location

Airport:

Trip Planner

Search our weather history database for the weather conditions in past years. The results will help you decide how hot, cold, wet, or windy it might be!

Date:

Astronomy

Jun. 14, 2013 Rise Set
Actual Time 5:50 AM CDT 8:49 PM CDT
Civil Twilight 5:18 AM CDT 9:21 PM CDT
Nautical Twilight 4:37 AM CDT 10:03 PM CDT
Astronomical Twilight 3:49 AM CDT 10:51 PM CDT
Moon 11:26 AM CDT (6/14) No Moon Set
Length of Visible Light 16h 03m
Length of Day
14h 58m
Waxing Crescent, 30% of the Moon is Illuminated
Jun 14
Waxing Crescent
Jun 16
First Quarter
Jun 23
Full
Jun 29
Last Quarter
Jul 8
New

Hourly Weather History & Observations

Time (CDT) Temp. Heat Index Dew Point Humidity Pressure Visibility Wind Dir Wind Speed Gust Speed Precip Events Conditions
12:53 AM 64.9 °F - 60.1 °F 84% 30.01 in 10.0 mi Calm Calm - N/A   Clear
1:53 AM 64.9 °F - 59.0 °F 81% 30.00 in 10.0 mi Calm Calm - N/A   Clear
2:53 AM 63.0 °F - 59.0 °F 87% 30.01 in 10.0 mi North 4.6 mph - N/A   Clear
3:53 AM 64.0 °F - 59.0 °F 84% 29.98 in 10.0 mi SE 3.5 mph - N/A   Clear
4:53 AM 66.9 °F - 57.9 °F 73% 29.98 in 10.0 mi ESE 4.6 mph - N/A   Partly Cloudy
5:53 AM 66.9 °F - 59.0 °F 76% 30.00 in 10.0 mi Calm Calm - N/A   Overcast
6:53 AM 66.9 °F - 60.1 °F 79% 30.01 in 10.0 mi SE 5.8 mph - N/A   Clear
7:53 AM 69.1 °F - 61.0 °F 75% 30.00 in 10.0 mi ESE 8.1 mph - N/A   Mostly Cloudy
8:53 AM 72.0 °F - 63.0 °F 73% 29.99 in 10.0 mi South 8.1 mph - N/A   Mostly Cloudy
9:53 AM 77.0 °F - 64.9 °F 66% 29.97 in 10.0 mi SSE 11.5 mph - N/A   Partly Cloudy
10:53 AM 80.1 °F 81.2 °F 62.1 °F 54% 29.98 in 10.0 mi South 15.0 mph 21.9 mph N/A   Overcast
11:53 AM 84.9 °F 85.9 °F 63.0 °F 48% 29.95 in 10.0 mi South 13.8 mph 20.7 mph N/A   Clear
12:53 PM 84.9 °F 85.9 °F 63.0 °F 48% 29.95 in 10.0 mi SSE 13.8 mph 20.7 mph N/A   Clear
1:53 PM 84.0 °F 87.0 °F 68.0 °F 58% 29.93 in 10.0 mi ESE 17.3 mph 25.3 mph N/A   Clear
2:53 PM 84.0 °F 86.5 °F 66.9 °F 56% 29.91 in 10.0 mi ESE 15.0 mph 26.5 mph N/A   Clear
3:53 PM 86.0 °F 88.8 °F 66.9 °F 53% 29.89 in 10.0 mi SE 19.6 mph 25.3 mph N/A   Clear
4:53 PM 86.0 °F 88.2 °F 66.0 °F 51% 29.87 in 10.0 mi SE 18.4 mph - N/A   Clear
5:53 PM 86.0 °F 88.8 °F 66.9 °F 53% 29.85 in 10.0 mi SE 19.6 mph 25.3 mph N/A   Mostly Cloudy
6:53 PM 84.0 °F 86.5 °F 66.9 °F 56% 29.86 in 10.0 mi SE 16.1 mph 26.5 mph N/A   Overcast
7:53 PM 82.9 °F 85.4 °F 66.9 °F 58% 29.85 in 10.0 mi SE 16.1 mph 24.2 mph N/A   Clear
8:53 PM 82.0 °F 84.5 °F 66.9 °F 60% 29.86 in 10.0 mi ESE 12.7 mph - N/A   Clear
9:53 PM 80.1 °F 82.3 °F 66.9 °F 64% 29.89 in 10.0 mi SE 15.0 mph - N/A   Scattered Clouds
10:53 PM 80.1 °F 82.1 °F 66.0 °F 62% 29.87 in 10.0 mi SSE 16.1 mph 24.2 mph N/A   Clear
11:53 PM 77.0 °F - 66.9 °F 71% 29.88 in 10.0 mi SSE 9.2 mph - N/A   Clear